Startseite
Über Mich
AHP4
Galerie
Sehschlangen
Tourenbuch
Bookmarks
Elektronik
Bewertung
Geschichten
[Tagesmessung] [Jahreswerte] [Information]

Messwerte vom 10.01.2022

Die letzten Messwerte von 23:58:46 Uhr:
KategorieMesswert
Temperatur [°C]2
Luftdruck [mBar]1014
Sonneneinstrahlung0
Wind [km/h]0 aus Ost
Niederschlag [l/m²]0
rel.Luftfeucht.96.6%
CO2 [ppm]553

Diagramme
Messwerte vom 10.01.2022
Tagesaggregation
KategorieMinimumMaximumSchnittSumme
Temperatur [°C]243.2958
Luftdruck [mBar]99110141003.6833
Sonneneinstrahlung19949.4604
Wind [km/h]12
rF [%]96.696.696.6
Niederschlag [l/m²]0
CO2 [ppm]401792679.6
Einordnung alsKalter Tag

Messungen an benachbarten Tagen: Zur Jahresaggregation 2022
Tabelle aller Messwerte
UhrzeitTemperatur [°C]Luftdruck [mBar]SonneWind [km/h]RichtungRegen [l/m²]rF [%]CO2 [ppm]
00:01:48 3 991 0 1 SW 0 96.6 728
00:04:48 3 991 0 8 SO 0 96.6 726
00:07:48 3 991 0 1 NW 0 96.6 726
00:10:47 3 991 0 3 SW 0 96.6 723
00:13:45 3 991 0 1 SO 0 96.6 723
00:16:47 3 991 0 4 SW 0 96.6 724
00:19:48 3 991 0 4 SO 0 96.6 722
00:22:47 3 991 0 0 SO 0 96.6 720
00:25:47 3 991 0 2 S 0 96.6 717
00:28:46 3 991 0 0 S 0 96.6 718
00:31:47 3 992 0 1 NO 0 96.6 713
00:34:47 3 991 0 0 S 0 96.6 715
00:37:47 3 991 0 8 W 0 96.6 713
00:40:47 3 991 0 0 SW 0 96.6 717
00:43:44 3 992 0 4 SW 0 96.6 714
00:46:46 3 991 0 11 S 0 96.6 711
00:49:47 3 992 0 5 SO 0 96.6 712
00:52:46 3 992 0 0 SO 0 96.6 711
00:55:47 3 992 0 5 W 0 96.6 705
00:58:45 3 992 0 1 O 0 96.6 709
01:01:45 3 992 0 2 W 0 96.6 710
01:04:47 3 992 0 5 W 0 96.6 709
01:07:47 3 992 0 6 W 0 96.6 708
01:10:46 3 992 0 6 NW 0 96.6 705
01:13:46 3 991 0 3 S 0 96.6 712
01:16:45 3 992 0 2 W 0 96.6 703
01:19:46 3 991 0 1 SO 0 96.6 702
01:22:46 3 993 0 2 O 0 96.6 698
01:25:46 3 992 0 1 W 0 96.6 697
01:28:49 3 993 0 0 SW 0 96.6 697
01:31:46 3 992 0 2 W 0 96.6 703
01:34:47 3 993 0 3 SW 0 96.6 703
01:37:46 3 994 0 1 W 0 96.6 700
01:40:50 3 994 0 5 SW 0 96.6 697
01:43:46 3 993 0 6 NW 0 96.6 700
01:46:46 3 993 0 0 SO 0 96.6 695
01:49:48 3 993 0 4 SO 0 96.6 697
01:52:47 3 993 0 1 S 0 96.6 698
01:55:48 3 994 0 0 W 0 96.6 699
01:58:45 3 993 0 5 SW 0 96.6 703
02:01:47 3 994 0 2 O 0 96.6 703
02:04:47 3 993 0 2 W 0 96.6 700
02:07:48 3 994 0 3 SW 0 96.6 700
02:10:45 3 994 0 3 S 0 96.6 691
02:13:47 3 993 0 3 SW 0 96.6 695
02:16:48 3 994 0 3 SO 0 96.6 697
02:19:49 3 993 0 12 O 0 96.6 697
02:22:47 3 994 0 4 S 0 96.6 694
02:25:49 3 994 0 4 NW 0 96.6 688
02:28:48 3 994 0 2 W 0 96.6 692
02:31:46 3 994 0 4 W 0 96.6 691
02:34:49 3 994 0 2 SW 0 96.6 697
02:37:47 3 994 0 6 W 0 96.6 692
02:40:47 3 994 0 2 SW 0 96.6 697
02:43:47 3 995 0 1 S 0 96.6 698
02:46:46 3 994 0 3 SW 0 96.6 695
02:49:46 3 994 0 3 W 0 96.6 692
02:52:48 3 994 0 3 SW 0 96.6 683
02:55:47 3 995 0 2 W 0 96.6 681
02:58:47 3 995 0 4 NW 0 96.6 677
03:01:48 3 995 0 4 NW 0 96.6 688
03:04:48 3 994 0 4 SW 0 96.6 692
03:07:50 3 995 0 4 S 0 96.6 695
03:10:49 3 995 0 2 SW 0 96.6 683
03:13:50 3 995 0 5 NW 0 96.6 687
03:16:46 3 995 0 2 W 0 96.6 688
03:19:47 3 995 0 4 SW 0 96.6 688
03:22:45 3 995 0 1 W 0 96.6 679
03:25:48 3 995 0 6 SW 0 96.6 682
03:28:46 3 995 0 4 W 0 96.6 687
03:31:46 3 995 0 2 S 0 96.6 688
03:34:48 3 995 0 1 S 0 96.6 685
03:37:45 3 995 0 5 0 96.6 679
03:40:47 3 995 0 3 NW 0 96.6 674
03:43:47 3 995 0 1 O 0 96.6 677
03:46:47 3 995 0 6 W 0 96.6 674
03:49:45 3 995 0 3 W 0 96.6 677
03:52:47 3 995 0 3 W 0 96.6 674
03:55:46 3 995 0 3 SO 0 96.6 671
03:58:46 3 995 0 2 SW 0 96.6 677
04:01:47 3 995 0 0 W 0 96.6 671
04:04:46 3 995 0 2 SW 0 96.6 677
04:07:47 3 995 0 6 W 0 96.6 670
04:10:45 3 995 0 2 S 0 96.6 677
04:13:46 3 996 0 0 SW 0 96.6 677
04:16:47 3 995 0 2 SW 0 96.6 677
04:19:48 3 995 0 2 W 0 96.6 666
04:22:47 3 995 0 2 W 0 96.6 671
04:25:48 3 995 0 3 NW 0 96.6 678
04:28:46 3 995 0 4 W 0 96.6 677
04:31:48 3 995 0 2 SW 0 96.6 681
04:34:48 3 995 0 1 W 0 96.6 674
04:37:47 3 995 0 2 SW 0 96.6 674
04:40:48 3 995 0 0 S 0 96.6 676
04:43:48 3 996 0 3 W 0 96.6 674
04:46:46 3 995 0 1 SW 0 96.6 666
04:49:48 3 996 0 1 SO 0 96.6 663
04:52:47 3 996 0 10 NW 0 96.6 653
04:55:48 3 996 0 2 W 0 96.6 653
04:58:48 3 996 0 1 SW 0 96.6 662
05:01:47 3 996 0 2 W 0 96.6 667
05:04:48 3 996 0 1 SW 0 96.6 665
05:07:48 3 996 0 0 SO 0 96.6 659
05:10:48 3 997 0 0 SW 0 96.6 664
05:13:46 3 996 0 0 S 0 96.6 673
05:16:46 3 996 0 2 W 0 96.6 677
05:19:46 3 996 0 0 S 0 96.6 670
05:22:47 3 997 0 0 NW 0 96.6 664
05:25:50 3 997 0 2 SO 0 96.6 664
05:28:48 3 997 0 2 SW 0 96.6 662
05:31:46 3 997 0 4 W 0 96.6 658
05:34:46 3 997 0 3 W 0 96.6 660
05:37:47 3 997 0 2 SW 0 96.6 657
05:40:48 3 997 0 3 NW 0 96.6 663
05:43:46 3 996 0 2 W 0 96.6 665
05:46:46 3 998 0 3 W 0 96.6 666
05:49:46 3 998 0 0 W 0 96.6 660
05:52:47 3 997 0 1 W 0 96.6 664
05:55:46 3 998 0 2 SW 0 96.6 674
05:58:45 3 998 0 4 NW 0 96.6 670
06:01:46 3 997 0 5 W 0 96.6 661
06:04:48 3 998 0 1 SW 0 96.6 650
06:07:46 3 998 0 3 S 0 96.6 653
06:10:48 3 998 0 6 W 0 96.6 653
06:13:47 3 998 0 2 W 0 96.6 656
06:16:46 3 998 0 2 SW 0 96.6 653
06:19:47 3 998 0 4 W 0 96.6 647
06:22:47 3 998 0 0 W 0 96.6 648
06:25:47 3 998 0 0 W 0 96.6 649
06:28:46 3 998 0 2 W 0 96.6 659
06:31:48 3 998 0 1 NW 0 96.6 662
06:34:46 3 998 0 0 S 0 96.6 664
06:37:48 3 998 0 3 W 0 96.6 656
06:40:46 3 998 0 4 NW 0 96.6 662
06:43:46 3 998 0 4 W 0 96.6 656
06:46:47 3 998 0 3 NW 0 96.6 658
06:49:48 3 998 0 1 W 0 96.6 653
06:52:47 3 998 0 2 NW 0 96.6 647
06:55:46 3 998 0 1 W 0 96.6 656
06:58:44 3 998 0 0 N 0 96.6 671
07:01:47 3 998 0 4 W 0 96.6 663
07:04:49 3 998 0 1 NW 0 96.6 659
07:07:46 3 998 0 5 W 0 96.6 659
07:10:50 3 998 0 3 W 0 96.6 665
07:13:45 3 999 0 8 NW 0 96.6 676
07:16:46 3 998 0 5 SW 0 96.6 676
07:19:48 3 998 0 5 W 0 96.6 680
07:22:47 3 999 0 1 W 0 96.6 684
07:25:47 3 998 0 2 SW 0 96.6 700
07:28:45 3 999 0 5 W 0 96.6 700
07:31:47 3 998 0 2 W 0 96.6 700
07:34:48 3 998 0 1 SW 0 96.6 694
07:37:48 3 1000 0 0 W 0 96.6 700
07:40:46 3 999 0 2 SW 0 96.6 700
07:43:48 3 1000 0 0 SW 0 96.6 700
07:46:44 3 999 0 0 0 96.6 700
07:49:48 3 999 0 0 NW 0 96.6 697
07:52:46 3 999 0 0 SW 0 96.6 697
07:55:47 3 1000 0 2 S 0 96.6 692
07:58:50 3 1000 0 4 NW 0 96.6 688
08:01:47 3 1000 3 2 W 0 96.6 688
08:04:47 3 1000 4 4 W 0 96.6 685
08:07:47 3 1000 6 3 W 0 96.6 694
08:10:48 3 1000 9 1 NW 0 96.6 700
08:13:47 3 1001 12 2 W 0 96.6 700
08:16:47 3 1001 14 2 W 0 96.6 708
08:19:47 3 1001 18 5 NW 0 96.6 718
08:22:48 3 1002 21 2 NW 0 96.6 724
08:25:49 3 1002 28 2 W 0 96.6 723
08:28:46 3 1001 40 2 W 0 96.6 720
08:31:47 3 1002 52 1 S 0 96.6 721
08:34:48 3 1000 61 3 S 0 96.6 721
08:37:50 3 1001 68 4 NW 0 96.6 710
08:40:48 3 1001 72 2 W 0 96.6 715
08:43:47 3 1001 80 0 W 0 96.6 712
08:46:47 3 1001 87 4 W 0 96.6 708
08:49:49 3 1002 92 3 W 0 96.6 712
08:52:49 3 1002 105 2 SW 0 96.6 715
08:55:49 3 1002 111 4 SW 0 96.6 707
08:58:50 3 1002 112 5 W 0 96.6 704
09:01:48 3 1001 106 3 S 0 96.6 715
09:04:47 3 1002 112 4 W 0 96.6 721
09:07:50 3 1002 115 1 SW 0 96.6 723
09:10:48 3 1002 121 4 SW 0 96.6 727
09:13:47 3 1002 137 5 W 0 96.6 726
09:16:48 3 1002 145 4 SW 0 96.6 720
09:19:48 3 1002 132 4 W 0 96.6 726
09:22:47 3 1002 126 3 SW 0 96.6 730
09:25:47 3 1002 134 9 O 0 96.6 727
09:28:49 3 1002 122 5 SW 0 96.6 729
09:31:48 3 1002 133 7 NW 0 96.6 726
09:34:48 3 1002 139 7 W 0 96.6 717
09:37:47 3 1002 144 6 W 0 96.6 717
09:40:47 3 1002 144 10 W 0 96.6 724
09:43:47 3 1002 144 5 NW 0 96.6 717
09:46:48 3 1002 150 7 NW 0 96.6 725
09:49:48 3 1002 159 1 W 0 96.6 724
09:52:48 3 1002 161 10 SW 0 96.6 739
09:55:49 4 1002 159 10 NW 0 96.6 737
09:58:48 4 1002 153 3 W 0 96.6 728
10:01:49 4 1002 164 1 W 0 96.6 720
10:04:49 4 1002 173 7 W 0 96.6 738
10:07:49 4 1002 175 5 NW 0 96.6 741
10:10:49 4 1003 175 6 W 0 96.6 741
10:13:47 4 1002 178 8 W 0 96.6 738
10:16:47 4 1002 177 3 W 0 96.6 738
10:19:47 4 1002 181 3 NW 0 96.6 739
10:22:50 4 1002 174 3 W 0 96.6 738
10:25:45 4 1002 175 1 W 0 96.6 743
10:28:52 4 1002 172 0 SW 0 96.6 748
10:31:48 4 1003 171 6 W 0 96.6 739
10:34:48 4 1002 176 3 W 0 96.6 733
10:37:47 4 1002 173 1 SW 0 96.6 736
10:40:47 4 1003 172 4 W 0 96.6 735
10:43:46 4 1002 177 2 W 0 96.6 743
10:46:47 4 1003 173 1 SW 0 96.6 749
10:49:47 4 1002 181 1 W 0 96.6 750
10:52:46 4 1002 194 3 W 0 96.6 753
10:55:49 4 1003 186 2 SW 0 96.6 750
10:58:50 4 1003 190 5 W 0 96.6 749
11:01:46 4 1003 195 7 W 0 96.6 724
11:04:48 4 1003 182 9 W 0 96.6 729
11:07:46 4 1003 176 2 N 0 96.6 728
11:10:46 4 1003 188 5 W 0 96.6 741
11:13:45 4 1003 197 1 O 0 96.6 738
11:16:48 4 1004 187 3 W 0 96.6 721
11:19:46 4 1004 169 5 W 0 96.6 724
11:22:48 4 1004 173 3 W 0 96.6 730
11:25:47 4 1003 172 4 W 0 96.6 735
11:28:47 4 1003 187 1 W 0 96.6 736
11:31:48 4 1004 196 1 NW 0 96.6 729
11:34:46 4 1004 194 1 W 0 96.6 730
11:37:49 4 1003 192 4 W 0 96.6 729
11:40:47 4 1003 194 2 W 0 96.6 735
11:43:48 4 1004 199 6 SW 0 96.6 733
11:46:48 4 1004 177 4 NW 0 96.6 728
11:49:50 4 1004 174 4 W 0 96.6 728
11:52:47 4 1004 170 3 S 0 96.6 727
11:55:47 4 1004 176 3 O 0 96.6 734
11:58:49 4 1004 165 1 W 0 96.6 733
12:01:47 4 1004 190 0 W 0 96.6 736
12:04:47 4 1005 181 4 W 0 96.6 743
12:07:49 4 1006 182 6 NW 0 96.6 743
12:10:47 4 1004 166 2 N 0 96.6 749
12:13:47 4 1005 162 2 N 0 96.6 737
12:16:49 4 1005 169 3 N 0 96.6 732
12:19:46 4 1004 171 7 W 0 96.6 735
12:22:47 4 1004 180 3 W 0 96.6 735
12:25:49 4 1005 178 4 NW 0 96.6 740
12:28:46 4 1005 187 1 N 0 96.6 735
12:31:46 4 1005 174 7 NW 0 96.6 737
12:34:47 4 1005 168 4 W 0 96.6 746
12:38:01 4 1005 175 4 W 0 96.6 758
12:40:48 4 1005 184 4 W 0 96.6 763
12:43:48 4 1005 185 3 NW 0 96.6 764
12:46:47 4 1005 179 4 W 0 96.6 770
12:49:49 4 1006 181 5 NW 0 96.6 778
12:52:48 4 1006 185 9 SW 0 96.6 780
12:55:48 4 1006 179 2 NW 0 96.6 776
12:58:47 4 1006 177 6 W 0 96.6 767
13:01:50 4 1006 177 2 SW 0 96.6 776
13:04:48 4 1006 167 8 NW 0 96.6 776
13:07:48 4 1006 175 3 W 0 96.6 779
13:10:46 4 1006 168 5 W 0 96.6 772
13:13:49 4 1005 172 0 NW 0 96.6 758
13:16:45 4 1006 169 4 NW 0 96.6 755
13:19:47 4 1006 176 3 W 0 96.6 744
13:22:49 4 1006 173 7 NW 0 96.6 757
13:25:48 4 1006 184 0 W 0 96.6 762
13:28:50 4 1006 188 4 SW 0 96.6 762
13:31:48 4 1006 187 1 SW 0 96.6 762
13:34:47 4 1006 179 5 N 0 96.6 755
13:37:50 4 1006 171 1 W 0 96.6 750
13:40:48 4 1006 173 2 N 0 96.6 741
13:43:48 4 1006 170 2 NW 0 96.6 745
13:46:45 4 1006 171 4 NW 0 96.6 747
13:49:48 4 1006 171 3 NW 0 96.6 749
13:52:49 4 1006 168 3 NW 0 96.6 751
13:55:49 4 1006 169 1 SW 0 96.6 761
13:58:46 4 1006 173 4 W 0 96.6 756
14:01:49 4 1006 162 2 NW 0 96.6 759
14:04:47 4 1006 168 2 W 0 96.6 760
14:07:48 4 1006 169 2 NW 0 96.6 761
14:10:47 4 1006 172 4 W 0 96.6 765
14:13:45 4 1006 175 4 NO 0 96.6 767
14:16:47 4 1006 160 6 W 0 96.6 766
14:19:48 4 1006 151 6 O 0 96.6 759
14:22:50 4 1006 153 1 S 0 96.6 762
14:25:50 4 1006 154 4 NW 0 96.6 765
14:28:47 4 1006 155 3 W 0 96.6 764
14:31:47 4 1006 154 2 NW 0 96.6 764
14:34:49 4 1006 155 2 NO 0 96.6 767
14:37:49 4 1006 151 2 NW 0 96.6 766
14:40:48 4 1006 131 5 S 0 96.6 767
14:43:48 4 1006 139 5 W 0 96.6 762
14:46:49 4 1006 141 4 NW 0 96.6 764
14:49:47 4 1006 149 7 SW 0 96.6 776
14:52:48 4 1006 159 5 NW 0 96.6 778
14:55:47 4 1006 155 5 SW 0 96.6 773
14:58:46 4 1006 136 7 N 0 96.6 770
15:01:47 4 1006 132 3 W 0 96.6 773
15:04:46 4 1006 143 3 N 0 96.6 782
15:07:47 4 1007 136 2 N 0 96.6 791
15:10:47 4 1007 124 1 NW 0 96.6 790
15:13:48 4 1007 117 4 W 0 96.6 785
15:16:49 4 1007 114 4 NW 0 96.6 775
15:19:48 4 1006 132 0 N 0 96.6 777
15:22:49 4 1008 142 1 NW 0 96.6 782
15:25:52 4 1007 119 5 NW 0 96.6 778
15:28:46 4 1007 109 3 N 0 96.6 778
15:31:47 4 1007 101 1 N 0 96.6 779
15:34:48 4 1008 99 0 NO 0 96.6 790
15:37:46 4 1008 97 2 N 0 96.6 785
15:40:51 4 1007 96 3 NW 0 96.6 790
15:43:45 4 1008 93 2 N 0 96.6 788
15:46:49 4 1008 93 3 O 0 96.6 792
15:49:48 4 1008 77 4 NW 0 96.6 790
15:52:47 4 1009 68 2 N 0 96.6 789
15:55:47 4 1008 24 0 NW 0 96.6 500
15:58:49 4 1008 25 0 NW 0 96.6 401
16:01:50 4 1008 70 0 NW 0 96.6 416
16:04:49 4 1009 65 0 NW 0 96.6 469
16:07:52 4 1008 64 0 NW 0 96.6 463
16:10:46 4 1009 61 0 W 0 96.6 492
16:13:49 4 1008 55 0 W 0 96.6 483
16:16:46 4 1009 55 0 W 0 96.6 477
16:19:47 4 1009 46 0 W 0 96.6 483
16:22:47 4 1009 35 0 N 0 96.6 525
16:25:47 4 1009 31 3 NW 0 96.6 523
16:28:49 4 1009 25 2 N 0 96.6 518
16:31:49 4 1009 21 0 NO 0 96.6 526
16:34:46 4 1009 21 0 NO 0 96.6 541
16:37:47 4 1009 20 0 NO 0 96.6 564
16:40:48 4 1009 16 0 NO 0 96.6 582
16:43:48 4 1009 13 0 NO 0 96.6 600
16:46:48 4 1009 9 0 NO 0 96.6 612
16:49:49 4 1010 6 0 NO 0 96.6 626
16:52:47 4 1010 4 0 NO 0 96.6 633
16:55:46 4 1010 0 0 NO 0 96.6 638
16:58:48 4 1009 0 0 NW 0 96.6 650
17:01:47 4 1010 0 0 NW 0 96.6 653
17:04:47 4 1010 0 0 NW 0 96.6 658
17:07:48 4 1009 0 0 NW 0 96.6 659
17:10:47 4 1009 0 0 NW 0 96.6 635
17:13:48 4 1010 0 0 NW 0 96.6 591
17:16:45 4 1010 0 0 N 0 96.6 583
17:19:47 4 1010 0 0 N 0 96.6 572
17:22:46 4 1010 0 0 N 0 96.6 560
17:25:46 4 1010 0 0 N 0 96.6 556
17:28:46 4 1010 0 0 N 0 96.6 553
17:31:44 4 1010 0 0 N 0 96.6 550
17:34:48 4 1010 0 0 N 0 96.6 548
17:37:46 4 1010 0 0 N 0 96.6 546
17:40:47 4 1010 0 0 N 0 96.6 557
17:43:48 4 1010 0 0 N 0 96.6 563
17:46:46 4 1010 0 0 N 0 96.6 557
17:49:47 4 1010 0 0 N 0 96.6 559
17:52:47 4 1010 0 0 N 0 96.6 557
17:55:47 4 1010 0 0 N 0 96.6 567
17:58:44 4 1010 0 0 N 0 96.6 550
18:01:46 4 1010 0 0 N 0 96.6 564
18:04:47 4 1010 0 0 N 0 96.6 564
18:07:46 4 1010 15 0 N 0 96.6 572
18:10:46 4 1010 14 0 N 0 96.6 594
18:13:49 4 1010 0 0 N 0 96.6 617
18:16:46 4 1010 0 1 N 0 96.6 620
18:19:48 4 1010 0 0 NO 0 96.6 620
18:22:48 4 1011 0 0 NO 0 96.6 621
18:25:48 4 1011 0 0 NO 0 96.6 623
18:28:48 4 1010 0 4 W 0 96.6 633
18:31:46 4 1011 0 0 N 0 96.6 630
18:34:46 4 1011 0 1 NO 0 96.6 627
18:37:46 4 1011 0 0 W 0 96.6 633
18:40:49 4 1011 0 0 NW 0 96.6 642
18:43:49 4 1010 0 1 O 0 96.6 644
18:46:46 3 1011 0 1 N 0 96.6 650
18:49:46 3 1011 0 1 S 0 96.6 654
18:52:46 3 1011 0 1 SO 0 96.6 656
18:55:48 3 1011 0 2 NO 0 96.6 660
18:58:50 3 1011 0 2 NO 0 96.6 650
19:01:47 3 1012 0 2 O 0 96.6 639
19:04:46 3 1012 0 1 O 0 96.6 635
19:07:46 3 1011 0 3 N 0 96.6 633
19:10:46 3 1012 0 2 0 96.6 633
19:13:46 3 1012 0 4 O 0 96.6 642
19:16:46 3 1012 0 2 O 0 96.6 645
19:19:46 3 1012 0 1 S 0 96.6 642
19:22:47 3 1012 0 2 N 0 96.6 642
19:25:44 3 1012 0 3 N 0 96.6 641
19:28:51 3 1012 0 2 NO 0 96.6 639
19:31:45 3 1011 0 0 N 0 96.6 648
19:34:45 3 1012 0 1 N 0 96.6 648
19:37:47 3 1012 0 1 NO 0 96.6 645
19:40:45 3 1011 0 1 N 0 96.6 645
19:43:46 3 1012 0 1 N 0 96.6 653
19:46:47 3 1012 0 6 N 0 96.6 653
19:49:48 3 1012 0 2 NO 0 96.6 650
19:52:47 3 1012 0 3 NO 0 96.6 650
19:55:50 3 1012 0 4 SO 0 96.6 653
19:58:46 3 1012 0 1 O 0 96.6 659
20:01:49 3 1013 0 1 NO 0 96.6 666
20:04:48 3 1012 0 3 SO 0 96.6 660
20:07:47 3 1013 0 0 O 0 96.6 659
20:10:47 3 1012 0 0 O 0 96.6 654
20:13:49 3 1012 0 1 NO 0 96.6 660
20:16:48 3 1012 0 0 O 0 96.6 670
20:19:49 3 1013 0 1 SO 0 96.6 662
20:22:44 3 1013 0 0 O 0 96.6 664
20:25:47 3 1013 0 1 NO 0 96.6 664
20:28:49 3 1013 0 1 SO 0 96.6 659
20:31:47 3 1012 0 0 NO 0 96.6 648
20:34:47 3 1013 0 0 O 0 96.6 638
20:37:47 3 1013 0 0 O 0 96.6 638
20:40:45 3 1013 0 0 O 0 96.6 642
20:43:49 3 1013 0 2 S 0 96.6 638
20:46:46 3 1013 0 1 O 0 96.6 641
20:49:46 3 1013 0 0 NO 0 96.6 647
20:52:47 3 1013 0 1 O 0 96.6 650
20:55:47 3 1013 0 0 NO 0 96.6 656
20:58:47 3 1013 0 0 SO 0 96.6 653
21:01:47 3 1013 0 1 SO 0 96.6 652
21:04:46 2 1013 0 1 SO 0 96.6 659
21:07:48 2 1013 0 0 SO 0 96.6 669
21:10:49 2 1013 0 0 SO 0 96.6 669
21:13:47 2 1013 0 4 SO 0 96.6 671
21:16:47 2 1013 0 0 SO 0 96.6 677
21:19:46 2 1013 0 0 N 0 96.6 677
21:22:47 2 1013 0 1 NO 0 96.6 680
21:25:48 2 1013 0 0 NO 0 96.6 680
21:28:48 2 1013 0 0 O 0 96.6 644
21:31:47 2 1013 0 0 O 0 96.6 639
21:34:45 2 1013 0 0 N 0 96.6 656
21:37:47 2 1013 0 0 NO 0 96.6 681
21:40:48 2 1013 0 0 SO 0 96.6 681
21:43:46 2 1013 0 0 O 0 96.6 674
21:46:46 2 1013 0 0 O 0 96.6 673
21:49:47 2 1013 0 0 O 0 96.6 674
21:52:45 2 1013 0 0 O 0 96.6 677
21:55:48 2 1013 0 0 N 0 96.6 665
21:58:46 2 1013 0 1 O 0 96.6 663
22:01:48 2 1013 0 0 NO 0 96.6 668
22:04:48 2 1013 0 1 O 0 96.6 671
22:07:46 2 1013 0 0 O 0 96.6 672
22:10:48 2 1013 0 2 SO 0 96.6 678
22:13:46 2 1013 0 0 O 0 96.6 680
22:16:47 2 1013 0 0 O 0 96.6 677
22:19:48 2 1013 0 0 O 0 96.6 676
22:22:46 2 1013 0 0 O 0 96.6 674
22:25:47 2 1013 0 0 O 0 96.6 671
22:28:47 2 1013 0 0 O 0 96.6 669
22:31:48 2 1013 0 0 O 0 96.6 674
22:34:49 3 1013 0 0 O 0 96.6 671
22:37:48 3 1013 0 0 O 0 96.6 668
22:40:47 3 1013 0 0 O 0 96.6 669
22:43:49 3 1013 0 0 O 0 96.6 674
22:46:47 3 1013 0 0 O 0 96.6 680
22:49:48 3 1013 0 0 O 0 96.6 678
22:52:46 3 1013 0 0 O 0 96.6 666
22:55:47 3 1013 0 0 O 0 96.6 665
22:58:48 3 1013 0 0 O 0 96.6 519
23:01:44 3 1013 0 0 0 96.6 524
23:04:48 3 1013 0 0 O 0 96.6 516
23:07:47 3 1014 0 0 O 0 96.6 515
23:10:48 3 1013 0 0 SO 0 96.6 524
23:13:48 3 1014 0 0 SO 0 96.6 527
23:16:48 3 1013 0 1 NW 0 96.6 528
23:19:45 3 1013 0 0 SO 0 96.6 534
23:22:50 3 1013 0 0 SO 0 96.6 525
23:25:48 3 1013 0 1 SO 0 96.6 533
23:28:45 3 1014 0 0 O 0 96.6 536
23:31:46 3 1013 0 0 O 0 96.6 538
23:34:45 3 1014 0 0 O 0 96.6 536
23:37:47 3 1013 0 1 O 0 96.6 531
23:40:46 3 1014 0 0 O 0 96.6 524
23:43:47 3 1013 0 0 N 0 96.6 524
23:46:46 2 1014 0 0 O 0 96.6 545
23:49:46 2 1013 0 0 SO 0 96.6 545
23:52:49 2 1014 0 0 NO 0 96.6 551
23:55:47 2 1013 0 0 NO 0 96.6 548
23:58:46 2 1014 0 0 O 0 96.6 553

Letzte Änderung : 04-Jan-2022
Copyright Jens Köhler, Wolfsburg, Obere Dorfstraße 10d